DW4248 Weather Reports


Display with metric or nautical units.
time (UTC)temp
F
wind
direction
speed
MPH
gust
MPH
rain 1hr
in
rain 24hr
in
rain mn
in
humidity
%
barometer
mb
20260507060003 43 0 0.0 0.0 0.00 0.05 0.00 91 1017.6
20260507055403 43 0 0.0 0.0 0.00 0.06 0.00 91 1017.5
20260507054503 43 0 0.0 0.0 0.00 0.07 0.00 90 1017.5
20260507053603 43 0 0.0 0.0 0.00 0.07 0.00 90 1017.5
20260507052703 44 0 0.0 0.0 0.00 0.07 0.00 90 1017.5
20260507051803 44 0 0.0 0.0 0.00 0.07 0.00 89 1017.5
20260507050903 44 0 0.0 0.0 0.00 0.08 0.00 89 1017.3
20260507050004 44 0 0.0 0.0 0.00 0.08 0.00 89 1017.2
20260507045403 44 0 0.0 0.0 0.00 0.08 0.08 89 1017.1
20260507044503 44 0 0.0 0.0 0.00 0.08 0.08 88 1017.2
20260507043603 45 0 0.0 0.0 0.00 0.08 0.08 87 1017.2
20260507042724 45 0 0.0 0.0 0.00 0.08 0.08 86 1017.2
20260507041803 45 0 0.0 0.0 0.00 0.09 0.08 85 1017.2
20260507040903 46 0 0.0 0.0 0.00 0.09 0.08 84 1017.2
20260507040024 46 0 0.0 0.0 0.00 0.10 0.08 83 1017.1
20260507035403 46 0 0.0 0.0 0.00 0.10 0.08 83 1017.1
20260507034503 47 0 0.0 0.0 0.00 0.10 0.08 82 1017.1
20260507033603 47 0 0.0 0.0 0.00 0.10 0.08 81 1017.2
20260507032703 47 0 0.0 0.0 0.00 0.10 0.08 80 1017.3
20260507031803 48 0 0.0 0.0 0.00 0.10 0.08 79 1017.2
20260507030903 48 0 0.0 0.0 0.00 0.10 0.08 78 1017.1
20260507030003 49 0 0.0 0.0 0.00 0.10 0.08 77 1017.1
20260507025403 49 0 0.0 0.0 0.00 0.10 0.08 76 1017.0
20260507024503 50 0 0.0 0.0 0.00 0.10 0.08 75 1017.1
20260507023603 50 0 0.0 0.0 0.00 0.10 0.08 74 1017.1
20260507022724 51 0 0.0 0.0 0.00 0.10 0.08 73 1017.0
20260507021803 51 0 0.0 0.0 0.00 0.11 0.08 71 1016.9
20260507020903 52 0 0.0 0.0 0.00 0.11 0.08 70 1016.8
20260507020003 52 0 0.0 0.0 0.00 0.12 0.08 68 1016.8
20260507015403 53 0 0.0 0.0 0.00 0.13 0.08 67 1016.6
20260507014503 54 0 0.0 0.0 0.00 0.14 0.08 65 1016.3
20260507013603 54 0 0.0 0.0 0.00 0.15 0.08 62 1016.4
20260507012703 55 0 0.0 0.0 0.00 0.17 0.08 60 1016.2
20260507011803 56 0 0.0 0.0 0.00 0.17 0.08 57 1015.9
20260507010903 56 0 0.0 0.0 0.00 0.18 0.08 56 1015.8
20260507010004 57 0 0.0 0.0 0.00 0.19 0.08 55 1015.6
20260507005424 57 323 0.0 1.0 0.00 0.20 0.08 54 1015.6
20260507004503 58 298 0.0 1.0 0.00 0.23 0.08 54 1015.5
20260507003603 58 317 0.0 1.0 0.00 0.25 0.08 53 1015.5
20260507002703 59 319 0.0 4.0 0.00 0.25 0.08 51 1015.6
20260507001803 59 324 0.0 2.0 0.00 0.25 0.08 51 1015.6
20260507000903 59 315 0.0 1.0 0.00 0.26 0.08 51 1015.5
20260507000004 59 328 0.0 1.0 0.00 0.28 0.08 50 1015.4
20260506235403 59 325 0.0 2.0 0.00 0.31 0.08 50 1015.3
20260506234524 59 325 0.0 3.0 0.00 0.32 0.08 50 1015.3
20260506233603 59 331 0.0 1.0 0.00 0.35 0.08 48 1015.4
20260506232703 60 316 0.0 4.0 0.00 0.39 0.08 47 1015.4
20260506231803 60 320 1.0 4.0 0.00 0.43 0.08 48 1015.4
20260506230903 60 331 1.0 8.0 0.00 0.44 0.08 48 1015.5
20260506230024 61 321 1.0 3.0 0.00 0.45 0.08 46 1015.4
20260506225425 61 322 1.0 5.0 0.00 0.45 0.08 45 1015.5
20260506224503 61 322 1.0 4.0 0.00 0.45 0.08 45 1015.5
20260506223603 60 329 1.0 3.0 0.00 0.45 0.08 46 1015.5
20260506222703 60 328 2.0 6.0 0.00 0.45 0.08 47 1015.6
20260506221803 61 325 1.0 5.0 0.00 0.45 0.08 47 1015.6
20260506220903 61 323 2.0 5.0 0.00 0.45 0.08 45 1015.5
20260506220003 61 327 0.0 3.0 0.00 0.45 0.08 49 1015.5
20260506215403 60 348 0.0 1.0 0.00 0.45 0.08 48 1015.6
20260506214503 60 326 0.0 4.0 0.00 0.45 0.08 46 1015.7
20260506213624 61 329 1.0 5.0 0.00 0.45 0.08 45 1015.7
20260506212703 61 324 0.0 4.0 0.00 0.45 0.08 48 1015.7
20260506211803 60 335 1.0 4.0 0.00 0.45 0.08 49 1015.7
20260506210924 60 329 1.0 3.0 0.00 0.46 0.08 48 1015.7
20260506210003 60 335 1.0 5.0 0.00 0.46 0.08 49 1015.8
20260506205424 60 335 1.0 5.0 0.00 0.46 0.08 50 1015.8
20260506204503 60 342 1.0 6.0 0.00 0.46 0.08 48 1015.9
20260506203603 60 333 3.0 10.0 0.00 0.46 0.08 47 1016.1
20260506202724 60 326 3.0 12.0 0.00 0.46 0.08 47 1016.1
20260506201803 61 326 2.0 8.0 0.00 0.46 0.08 46 1016.2
20260506200903 60 326 2.0 8.0 0.00 0.48 0.08 48 1016.4
20260506200024 60 330 2.0 9.0 0.00 0.50 0.08 45 1016.4
20260506195403 60 329 2.0 9.0 0.00 0.50 0.08 47 1016.5
20260506194503 60 331 3.0 11.0 0.00 0.50 0.08 46 1016.5
20260506193603 61 330 2.0 11.0 0.00 0.50 0.08 47 1016.4
20260506192703 60 327 3.0 11.0 0.00 0.50 0.08 45 1016.6
20260506191803 60 329 3.0 13.0 0.00 0.50 0.08 44 1016.7
20260506190903 60 335 3.0 11.0 0.00 0.50 0.08 45 1016.6
20260506190003 60 330 2.0 12.0 0.00 0.50 0.08 46 1016.3
20260506185403 59 327 2.0 12.0 0.00 0.50 0.08 48 1016.2
20260506184503 60 325 3.0 9.0 0.00 0.50 0.08 48 1016.2
20260506183624 59 325 2.0 6.0 0.00 0.50 0.08 51 1016.2
20260506182703 59 324 2.0 7.0 0.00 0.51 0.08 53 1016.3
20260506181803 58 323 2.0 6.0 0.00 0.52 0.08 52 1016.5
20260506180903 59 323 2.0 5.0 0.00 0.52 0.08 56 1016.7
20260506180004 59 324 2.0 7.0 0.00 0.52 0.08 59 1016.7
20260506175403 58 326 1.0 4.0 0.00 0.52 0.08 58 1016.6
20260506174503 58 329 3.0 9.0 0.00 0.52 0.08 62 1016.6
20260506173603 56 323 1.0 6.0 0.00 0.52 0.08 75 1016.6
20260506172703 53 320 3.0 9.0 0.00 0.52 0.08 93 1016.7
20260506171803 53 328 2.0 6.0 0.00 0.52 0.08 94 1016.6
20260506170903 53 329 2.0 8.0 0.00 0.52 0.08 94 1016.7
20260506170003 53 331 2.0 4.0 0.00 0.52 0.08 95 1016.5
20260506165403 52 333 2.0 6.0 0.00 0.52 0.08 95 1016.6
20260506164503 52 330 2.0 5.0 0.00 0.52 0.08 96 1016.6
20260506163603 52 329 2.0 6.0 0.00 0.52 0.08 95 1016.4
20260506162703 51 328 2.0 7.0 0.00 0.52 0.08 96 1016.5
20260506161803 51 326 2.0 7.0 0.00 0.52 0.08 96 1016.5
20260506160924 51 333 1.0 7.0 0.00 0.52 0.08 96 1016.3
20260506160024 51 321 1.0 2.0 0.00 0.52 0.08 96 1016.1
20260506155403 50 325 1.0 2.0 0.00 0.52 0.08 96 1016.2
20260506154503 50 325 2.0 4.0 0.00 0.52 0.08 96 1016.2
20260506153603 50 324 2.0 4.0 0.00 0.52 0.08 96 1016.1
20260506152703 50 349 1.0 3.0 0.00 0.52 0.08 96 1015.8
20260506151803 50 328 1.0 3.0 0.00 0.52 0.08 97 1015.7
20260506150903 49 343 0.0 4.0 0.00 0.52 0.08 97 1015.6
20260506150003 49 332 1.0 3.0 0.00 0.52 0.08 97 1015.6
20260506145403 49 333 1.0 3.0 0.00 0.52 0.08 97 1015.7
20260506144503 49 0 0.0 0.0 0.00 0.52 0.08 97 1015.6
20260506143603 49 0 0.0 0.0 0.00 0.52 0.08 97 1015.3
20260506142703 49 0 0.0 0.0 0.00 0.52 0.08 97 1015.5
20260506141803 49 327 0.0 1.0 0.00 0.52 0.08 97 1015.4
20260506140903 49 337 1.0 5.0 0.00 0.52 0.08 97 1015.6
20260506140003 48 333 2.0 6.0 0.00 0.52 0.08 97 1015.8
20260506135403 48 323 1.0 6.0 0.00 0.52 0.08 97 1015.7
20260506134503 48 335 2.0 7.0 0.00 0.52 0.08 97 1015.5
20260506133603 48 337 1.0 6.0 0.00 0.52 0.08 97 1015.6
20260506132703 48 344 0.0 4.0 0.00 0.52 0.08 97 1015.5
20260506131803 48 330 0.0 3.0 0.00 0.52 0.08 97 1015.6
20260506130904 48 337 1.0 5.0 0.00 0.52 0.08 97 1015.5
20260506130004 48 340 0.0 2.0 0.00 0.53 0.08 97 1015.3
20260506125403 47 347 0.0 2.0 0.00 0.54 0.08 97 1015.2
20260506124503 47 5 0.0 1.0 0.00 0.55 0.08 97 1015.1
20260506123603 47 274 0.0 2.0 0.00 0.56 0.08 97 1015.1
20260506122703 47 321 0.0 2.0 0.00 0.56 0.08 97 1015.1
20260506121803 47 325 0.0 1.0 0.00 0.57 0.08 97 1015.0
20260506120903 47 0 0.0 0.0 0.00 0.57 0.08 97 1014.6
20260506120003 47 325 0.0 1.0 0.00 0.59 0.08 97 1014.7
20260506115424 47 221 0.0 1.0 0.00 0.66 0.08 97 1014.8
20260506114503 47 214 0.0 2.0 0.00 0.67 0.08 97 1015.0
20260506113603 47 329 0.0 1.0 0.00 0.67 0.08 97 1014.7
20260506112724 47 325 0.0 2.0 0.00 0.67 0.08 97 1014.8
20260506111803 47 244 0.0 2.0 0.00 0.67 0.08 97 1014.3
20260506110903 47 334 0.0 1.0 0.00 0.69 0.08 96 1014.2
20260506110003 47 333 0.0 1.0 0.01 0.71 0.08 96 1013.4
20260506105403 47 333 0.0 1.0 0.01 0.71 0.08 96 1013.5
20260506104504 47 0 0.0 1.0 0.01 0.71 0.08 96 1013.1
20260506103603 47 0 0.0 0.0 0.02 0.71 0.08 96 1012.6
20260506102703 47 0 0.0 0.0 0.02 0.71 0.08 96 1012.6
20260506101803 47 0 0.0 0.0 0.02 0.71 0.08 96 1012.8
20260506100903 47 335 0.0 1.0 0.02 0.71 0.08 96 1012.9
20260506100004 47 339 0.0 1.0 0.01 0.70 0.07 96 1012.9
20260506095403 47 353 0.0 1.0 0.01 0.70 0.07 96 1012.9
20260506094503 46 63 0.0 1.0 0.01 0.70 0.07 96 1012.7
20260506093603 47 347 0.0 2.0 0.00 0.69 0.06 96 1012.9
20260506092703 47 0 0.0 1.0 0.01 0.69 0.06 96 1013.0
20260506091803 47 0 0.0 0.0 0.01 0.69 0.06 96 1012.9
20260506090903 47 0 0.0 0.0 0.01 0.69 0.06 96 1013.0
20260506090003 47 211 0.0 1.0 0.01 0.69 0.06 96 1013.4
20260506085403 47 329 0.0 1.0 0.01 0.69 0.06 96 1013.4
20260506084503 47 0 0.0 1.0 0.01 0.69 0.06 96 1013.0
20260506083603 47 0 0.0 1.0 0.01 0.69 0.06 96 1012.8
20260506082703 47 201 0.0 1.0 0.00 0.68 0.05 96 1012.6
20260506081803 47 0 0.0 0.0 0.00 0.68 0.05 96 1012.9
20260506080903 47 334 0.0 2.0 0.00 0.68 0.05 96 1013.1
20260506072703 46 321 0.0 1.0 0.01 0.68 0.05 96 1012.3
20260506071803 46 321 0.0 2.0 0.01 0.68 0.05 96 1012.6
20260506070903 46 323 0.0 3.0 0.01 0.68 0.05 96 1013.0
20260506061803 47 0 0.0 1.0 0.03 0.67 0.04 96 1012.5
20260506060924 46 0 0.0 0.0 0.04 0.67 0.04 95 1012.4